COSMOS 2251 DEB, 34136

Orbit data source: Space-Track

COSMOS 2251 DEB, 34136 is space debris in LEO originally from a launch on Wed, 16 Jun 1993 UTC launched from the Plesetsk Missile And Space Complex (PKMTR). The debris from Iridium 33, an American commercial communications satellite, has been tracked extensively since its accidental collision with the defunct Russian satellite Cosmos 2251 in 2009. This event, occurring at high speed in low Earth orbit (LEO), generated thousands of pieces of space debris, significantly increasing the risk of further collisions. The Iridium 33 debris cloud has impacted space traffic management and orbital debris mitigation strategies, making it a subject of ongoing study in space situational awareness.

Loading next visibility...
Identifier
34136, 1993-036LH
Orbit
LEO
Country
Flag of CISCIS
Related business
Manufacturer
Unknown
Mission
Spacecraft
Bus & Motor
Unknown
Mass
Unknown
Launch date (UTC)
1993-06-16 (33 years ago)
Launch vehicle
Unknown
Launch site
Plesetsk Missile And Space Complex (PKMTR)
Object type
Payload
Rocket body
Debris
Shape & HBR
Unknown shape, 0.1 m
Radar Cross Section
Small (<0.1 m²)

Expand to show TLE details & history
Last TLE update: 16 hours ago

TLE from 16 hours ago
0 COSMOS 2251 DEB
1 34136U 93036LH  25354.86491649  .00001799  00000-0  22743-3 0  9991
2 34136  74.0198  26.6074 0085228 147.3711  28.6822 14.80127198901304
Epoch: 2025-12-20T20:45Z
TLE epoch observation values (Epoch: 2025-12-20T20:45:28.784Z)
Latitude
3.24639°
Longitude
164.62625°
Altitude
578.941 km
Speed
7.6 km/s
True Right ascension
13h 42m 43s
True Declination
3° 13' 35"
Sunlit
Object was in daylight at epoch
Visualization orbit readout
Latitude
Unknown
Longitude
Unknown
Altitude
Unknown
Speed
Unknown
Apparent Right ascension
Unknown
Apparent Declination
Unknown
Sunlit
N/A
Visualization observer readout
Local Sidereal Time
11:17:48
Azimuth
Unknown
Elevation
Unknown
Doppler factor
Unknown
Orbital elements
Apogee altitude
686.198 km
Perigee altitude
566.8 km
Semi-major axis
7,004.636 km
Eccentricity
0.00852
Inclination
74.0198°
RAAN
26.6074°
Arg. of periapsis
147.3711°
True anomaly
29.15535°
Mean anomaly
28.6822°
Eccentric anomaly
28.91833°
Mean motion
3.70224 °/min
Orbital period
97.24 mins
BSTAR
0.00022743
Loading maneuver chart data...
Computing Atmospheric mass density...
Loading historical data...
Loading historical data...
Loading historical data...
Loading historical data...
Loading historical data...
Loading historical data...
Loading historical data...

Documentation

Showing up to 5 results
|